Weather WX

World > North America > United States > New York

Saint Huberts, New York Regional Weather

Lat: 44.16N, Lon: 73.77W
Wx Zone: NYZ034
Warning FLW WEATHER ALERT - (More Info. Click Here) Warning
Feedback

Saint Huberts, NY Regional Weather

Expires:201906201200;;781570
ASUS41 KALY 201110
RWRALY

NEW YORK STATE HOURLY WEATHER ROUNDUP
NATIONAL WEATHER SERVICE ALBANY NY
700 AM EDT THU JUN 20 2019

NOTE: "FAIR" INDICATES FEW OR NO CLOUDS BELOW 12,000 FEET WITH NO
SIGNIFICANT WEATHER AND/OR NO OBSTRUCTIONS TO VISIBILITY.


NYZ026>034-041>043-087-201200-
NORTH

  
CITY           SKY/WX    TMP DP  RH WIND       PRES   REMARKS
WATERTOWN      CLOUDY    66  64  93 E3        29.59F                  
FORT DRUM      NOT AVBL                                               
OGDENSBURG     FAIR      63  61  94 E5        29.60F                  
MASSENA        FAIR      64  59  83 E8        29.65F                  
SARANAC LAKE   CLOUDY    56  55  97 CALM      29.67F                  
PLATTSBURGH    FAIR      62  61  96 CALM      29.65F                  
$$


SKY/WX - Weather  TMP - Temperature  DP - Dew Point  RH - Relative Humidity
WIND - Wind Direction/Speed PRES - Barometric Pressure VSB - Visibility
WCI - Wind Chill Index E13G22 Wind - East Wind 13 mph/Gusts of 22 mph